(°C)
-1°
-1°
-1°
-2°
-2°
-1°
-1°
(°C)
-7°
-8°
-8°
-8°
-8°
-7°
-7°
ЗСЗ
ЗСЗ
З
З
З
З
З
(km/h)
17-34
16-32
16-30
15-28
14-29
14-30
13-30
(mm)
0
0
0
0
0
0
0
(%)
2
3
4
5
4
4
4

Издигане на слънцето

/ -67.4°
sun-icon
UV 1
06:42
16:15
Последна четвърт на луната (270°)
23:42
12:49

METAR за Барнстабъл (KHYA)

Час Условия Температура/
Точка на оросяване
Вятър Видимост Времето Облаци Налягане Промяна Сурови
VFR -0.6°C / -8.9°C 260º 8kt Gust 15kt >10km - Clear 1010 - KHYA 280256Z 26008G15KT 10SM CLR M01/M09 A2982 RMK AO2 SLP100 T10061089 51008
VFR 0°C / -7.8°C 270º 10kt Gust 17kt >10km - Clear 1009 - KHYA 280156Z 27010G17KT 10SM CLR 00/M08 A2982 RMK AO2 SLP099 T00001078
VFR 0.6°C / -7.2°C 270º 7kt >10km - Clear 1009 - KHYA 280056Z 27007KT 10SM CLR 01/M07 A2981 RMK AO2 SLP095 T00061072
VFR 1.1°C / -7.2°C 290º 8kt >10km - Clear 1009 - KHYA 272356Z 29008KT 10SM CLR 01/M07 A2980 RMK AO2 SLP093 T00111072 10056 20011 53029
VFR 1.7°C / -6.7°C 280º 5kt >10km - Clear 1007 - KHYA 272256Z 28005KT 10SM CLR 02/M07 A2976 RMK AO2 SLP079 T00171067
VFR 2.2°C / -6.7°C variable 5kt >10km - Clear 1006 - KHYA 272156Z VRB05KT 10SM CLR 02/M07 A2973 RMK AO2 SLP068 T00221067
VFR 3.3°C / -6.7°C 300º 10kt >10km - Clear 1006 - KHYA 272056Z 30010KT 10SM CLR 03/M07 A2971 RMK AO2 SLP062 T00331067 53027
VFR 4.4°C / -6.1°C 290º 9kt Gust 16kt >10km - Clear 1005 - KHYA 271956Z 29009G16KT 10SM CLR 04/M06 A2968 RMK AO2 SLP050 T00441061
VFR 5°C / -6.1°C 280º 12kt Gust 18kt >10km - Clear 1004 - KHYA 271856Z 28012G18KT 10SM CLR 05/M06 A2965 RMK AO2 SLP041 T00501061
VFR 5°C / -5.6°C 280º 9kt >10km - Clear 1003 - KHYA 271756Z 28009KT 10SM CLR 05/M06 A2963 RMK AO2 SLP035 T00501056 10056 20017 58001
VFR 5°C / -5°C 290º 14kt Gust 19kt >10km - Clear 1003 - KHYA 271656Z 29014G19KT 10SM CLR 05/M05 A2964 RMK AO2 SLP037 T00501050
VFR 4.4°C / -4.4°C 260º 14kt Gust 19kt >10km - Few Clouds 3600ft 1003 - KHYA 271556Z 26014G19KT 10SM FEW036 04/M04 A2964 RMK AO2 SLP037 T00441044
VFR 3.3°C / -4.4°C 290º 12kt Gust 17kt >10km - Few Clouds 3400ft 1003 - KHYA 271456Z 29012G17KT 10SM FEW034 03/M04 A2963 RMK AO2 PK WND 28027/1442 SLP036 T00331044 51018
VFR 2.8°C / -4.4°C 280º 12kt Gust 23kt >10km - Clear 1003 - KHYA 271356Z 28012G23KT 10SM CLR 03/M04 A2962 RMK AO2 SLP031 T00281044
VFR 2.2°C / -3.9°C 280º 10kt Gust 19kt >10km - Broken Clouds 7000ft
Overcast 8000ft
1002 - KHYA 271256Z 28010G19KT 10SM BKN070 OVC080 02/M04 A2960 RMK AO2 SLP025 T00221039
VFR 1.7°C / -3.9°C 290º variable 260º to 320º 11kt Gust 17kt >10km - Scattered Clouds 8500ft 1001 - KHYA 271156Z 29011G17KT 260V320 10SM SCT085 02/M04 A2958 RMK AO2 SLP018 70008 T00171039 10028 20017 51034
VFR 1.7°C / -3.9°C 290º 11kt Gust 17kt >10km - Few Clouds 8000ft
Scattered Clouds 10000ft
1000 - KHYA 271056Z 29011G17KT 10SM FEW080 SCT100 02/M04 A2955 RMK AO2 SLP006 T00171039
VFR 1.7°C / -3.9°C 280º 11kt Gust 19kt >10km - Clear 999 - KHYA 270956Z AUTO 28011G19KT 10SM CLR 02/M04 A2952 RMK AO2 SLP995 T00171039
VFR 2.2°C / -3.3°C 280º 15kt Gust 23kt >10km - Clear 998 - KHYA 270856Z AUTO 28015G23KT 10SM CLR 02/M03 A2948 RMK AO2 SLP984 T00221033 51023
VFR 2.2°C / -2.8°C 270º 17kt Gust 25kt >10km - Broken Clouds 6500ft
Broken Clouds 8000ft
997 - KHYA 270756Z AUTO 27017G25KT 10SM BKN065 BKN080 02/M03 A2947 RMK AO2 PK WND 27027/0703 SLP979 T00221028
VFR 2.8°C / -2.2°C 270º 14kt Gust 22kt >10km - Overcast 7000ft 996 - KHYA 270656Z AUTO 27014G22KT 10SM OVC070 03/M02 A2943 RMK AO2 SLP967 T00281022
VFR 2.2°C / -2.2°C 280º 12kt Gust 20kt >10km - Few Clouds 4700ft
Scattered Clouds 5500ft
Broken Clouds 10000ft
996 - KHYA 270556Z AUTO 28012G20KT 10SM FEW047 SCT055 BKN100 02/M02 A2941 RMK AO2 SLP961 60000 T00221022 10050 20022 53001
VFR 2.2°C / -1.7°C 270º 13kt Gust 24kt >10km - Few Clouds 5000ft
Broken Clouds 6500ft
995 - KHYA 270456Z AUTO 27013G24KT 10SM FEW050 BKN065 02/M02 A2940 RMK AO2 PK WND 26026/0405 SLP956 T00221017 400890022
VFR 2.2°C / -0.6°C 270º 15kt Gust 23kt >10km 0.13mm precipitation Few Clouds 2000ft
Overcast 6500ft
995 - KHYA 270356Z AUTO 27015G23KT 10SM FEW020 OVC065 02/M01 A2941 RMK AO2 SNB06E16 SLP959 P0000 T00221006

VFR

-0.6°C / -8.9°C

[Още]
Вятър 260º 8kt Gust 15kt
Видимост >10km
Времето -
Облаци Clear
Налягане 1010
Промяна -
Сурови KHYA 280256Z 26008G15KT 10SM CLR M01/M09 A2982 RMK AO2 SLP100 T10061089 51008

VFR

0°C / -7.8°C

[Още]
Вятър 270º 10kt Gust 17kt
Видимост >10km
Времето -
Облаци Clear
Налягане 1009
Промяна -
Сурови KHYA 280156Z 27010G17KT 10SM CLR 00/M08 A2982 RMK AO2 SLP099 T00001078

VFR

0.6°C / -7.2°C

[Още]
Вятър 270º 7kt
Видимост >10km
Времето -
Облаци Clear
Налягане 1009
Промяна -
Сурови KHYA 280056Z 27007KT 10SM CLR 01/M07 A2981 RMK AO2 SLP095 T00061072

VFR

1.1°C / -7.2°C

[Още]
Вятър 290º 8kt
Видимост >10km
Времето -
Облаци Clear
Налягане 1009
Промяна -
Сурови KHYA 272356Z 29008KT 10SM CLR 01/M07 A2980 RMK AO2 SLP093 T00111072 10056 20011 53029

VFR

1.7°C / -6.7°C

[Още]
Вятър 280º 5kt
Видимост >10km
Времето -
Облаци Clear
Налягане 1007
Промяна -
Сурови KHYA 272256Z 28005KT 10SM CLR 02/M07 A2976 RMK AO2 SLP079 T00171067

VFR

2.2°C / -6.7°C

[Още]
Вятър variable 5kt
Видимост >10km
Времето -
Облаци Clear
Налягане 1006
Промяна -
Сурови KHYA 272156Z VRB05KT 10SM CLR 02/M07 A2973 RMK AO2 SLP068 T00221067

VFR

3.3°C / -6.7°C

[Още]
Вятър 300º 10kt
Видимост >10km
Времето -
Облаци Clear
Налягане 1006
Промяна -
Сурови KHYA 272056Z 30010KT 10SM CLR 03/M07 A2971 RMK AO2 SLP062 T00331067 53027

VFR

4.4°C / -6.1°C

[Още]
Вятър 290º 9kt Gust 16kt
Видимост >10km
Времето -
Облаци Clear
Налягане 1005
Промяна -
Сурови KHYA 271956Z 29009G16KT 10SM CLR 04/M06 A2968 RMK AO2 SLP050 T00441061

VFR

5°C / -6.1°C

[Още]
Вятър 280º 12kt Gust 18kt
Видимост >10km
Времето -
Облаци Clear
Налягане 1004
Промяна -
Сурови KHYA 271856Z 28012G18KT 10SM CLR 05/M06 A2965 RMK AO2 SLP041 T00501061

VFR

5°C / -5.6°C

[Още]
Вятър 280º 9kt
Видимост >10km
Времето -
Облаци Clear
Налягане 1003
Промяна -
Сурови KHYA 271756Z 28009KT 10SM CLR 05/M06 A2963 RMK AO2 SLP035 T00501056 10056 20017 58001

VFR

5°C / -5°C

[Още]
Вятър 290º 14kt Gust 19kt
Видимост >10km
Времето -
Облаци Clear
Налягане 1003
Промяна -
Сурови KHYA 271656Z 29014G19KT 10SM CLR 05/M05 A2964 RMK AO2 SLP037 T00501050

VFR

4.4°C / -4.4°C

[Още]
Вятър 260º 14kt Gust 19kt
Видимост >10km
Времето -
Облаци Few Clouds 3600ft
Налягане 1003
Промяна -
Сурови KHYA 271556Z 26014G19KT 10SM FEW036 04/M04 A2964 RMK AO2 SLP037 T00441044

VFR

3.3°C / -4.4°C

[Още]
Вятър 290º 12kt Gust 17kt
Видимост >10km
Времето -
Облаци Few Clouds 3400ft
Налягане 1003
Промяна -
Сурови KHYA 271456Z 29012G17KT 10SM FEW034 03/M04 A2963 RMK AO2 PK WND 28027/1442 SLP036 T00331044 51018

VFR

2.8°C / -4.4°C

[Още]
Вятър 280º 12kt Gust 23kt
Видимост >10km
Времето -
Облаци Clear
Налягане 1003
Промяна -
Сурови KHYA 271356Z 28012G23KT 10SM CLR 03/M04 A2962 RMK AO2 SLP031 T00281044

VFR

2.2°C / -3.9°C

[Още]
Вятър 280º 10kt Gust 19kt
Видимост >10km
Времето -
Облаци Broken Clouds 7000ft
Overcast 8000ft
Налягане 1002
Промяна -
Сурови KHYA 271256Z 28010G19KT 10SM BKN070 OVC080 02/M04 A2960 RMK AO2 SLP025 T00221039

VFR

1.7°C / -3.9°C

[Още]
Вятър 290º variable 260º to 320º 11kt Gust 17kt
Видимост >10km
Времето -
Облаци Scattered Clouds 8500ft
Налягане 1001
Промяна -
Сурови KHYA 271156Z 29011G17KT 260V320 10SM SCT085 02/M04 A2958 RMK AO2 SLP018 70008 T00171039 10028 20017 51034

VFR

1.7°C / -3.9°C

[Още]
Вятър 290º 11kt Gust 17kt
Видимост >10km
Времето -
Облаци Few Clouds 8000ft
Scattered Clouds 10000ft
Налягане 1000
Промяна -
Сурови KHYA 271056Z 29011G17KT 10SM FEW080 SCT100 02/M04 A2955 RMK AO2 SLP006 T00171039

VFR

1.7°C / -3.9°C

[Още]
Вятър 280º 11kt Gust 19kt
Видимост >10km
Времето -
Облаци Clear
Налягане 999
Промяна -
Сурови KHYA 270956Z AUTO 28011G19KT 10SM CLR 02/M04 A2952 RMK AO2 SLP995 T00171039

VFR

2.2°C / -3.3°C

[Още]
Вятър 280º 15kt Gust 23kt
Видимост >10km
Времето -
Облаци Clear
Налягане 998
Промяна -
Сурови KHYA 270856Z AUTO 28015G23KT 10SM CLR 02/M03 A2948 RMK AO2 SLP984 T00221033 51023

VFR

2.2°C / -2.8°C

[Още]
Вятър 270º 17kt Gust 25kt
Видимост >10km
Времето -
Облаци Broken Clouds 6500ft
Broken Clouds 8000ft
Налягане 997
Промяна -
Сурови KHYA 270756Z AUTO 27017G25KT 10SM BKN065 BKN080 02/M03 A2947 RMK AO2 PK WND 27027/0703 SLP979 T00221028

VFR

2.8°C / -2.2°C

[Още]
Вятър 270º 14kt Gust 22kt
Видимост >10km
Времето -
Облаци Overcast 7000ft
Налягане 996
Промяна -
Сурови KHYA 270656Z AUTO 27014G22KT 10SM OVC070 03/M02 A2943 RMK AO2 SLP967 T00281022

VFR

2.2°C / -2.2°C

[Още]
Вятър 280º 12kt Gust 20kt
Видимост >10km
Времето -
Облаци Few Clouds 4700ft
Scattered Clouds 5500ft
Broken Clouds 10000ft
Налягане 996
Промяна -
Сурови KHYA 270556Z AUTO 28012G20KT 10SM FEW047 SCT055 BKN100 02/M02 A2941 RMK AO2 SLP961 60000 T00221022 10050 20022 53001

VFR

2.2°C / -1.7°C

[Още]
Вятър 270º 13kt Gust 24kt
Видимост >10km
Времето -
Облаци Few Clouds 5000ft
Broken Clouds 6500ft
Налягане 995
Промяна -
Сурови KHYA 270456Z AUTO 27013G24KT 10SM FEW050 BKN065 02/M02 A2940 RMK AO2 PK WND 26026/0405 SLP956 T00221017 400890022

VFR

2.2°C / -0.6°C

[Още]
Вятър 270º 15kt Gust 23kt
Видимост >10km
Времето 0.13mm precipitation
Облаци Few Clouds 2000ft
Overcast 6500ft
Налягане 995
Промяна -
Сурови KHYA 270356Z AUTO 27015G23KT 10SM FEW020 OVC065 02/M01 A2941 RMK AO2 SNB06E16 SLP959 P0000 T00221006

TAF за Барнстабъл (KHYA)

From till


From till Wind 280º 10kt. Visibility 10km or more. Sky Clear.
From till Wind 260º 8kt. Visibility 10km or more. Broken Clouds 10000ft.
From till Wind 260º 10kt. Visibility 10km or more. Overcast 5000ft.
From till Wind 210º 7kt. Visibility 10km or more. Overcast 2500ft.
From till Wind 190º 4kt. Visibility 10km or more. in the Vicinity Showers . Overcast 1500ft.

Сурови: KHYA 272320Z 2800/2824 28010KT P6SM SKC FM280800 26008KT P6SM BKN100 FM281500 26010KT P6SM OVC050 FM282000 21007KT P6SM OVC025 FM282200 19004KT P6SM VCSH OVC015

Актуални сателитни изображения за Барнстабъл, Съединени щати

Маркерът за локация е поставен върху Барнстабъл. [Още]

Сателитното изображение в реално време съчетава видимата светлина през деня с инфрачервеното лъчение през нощта. През нощта изображението не е тъмно, тъй като инфрачервеното лъчение може да открива температурни разлики. За съжаление ниските облаци и мъглата са трудни за разграничаване от температурите на земята и затова могат да бъдат почти невидими през нощта. Сателитните изображения на Meteosat за Европа се актуализират в реално време на всеки 5 минути. Изображенията GOES-16/GOES-17 (Северна и Южна Америка) и Химавари (Азия) се актуализират на всеки 10 минути.

Радар и валежи в момента за Барнстабъл

Ситен дъжд
Лек
Умерен
Тежък
Много тежък
Аве

Маркерът за локация обозначава Барнстабъл. Анимацията показва Радара за валежи за последния час, както и прогноза за 1h. Дъждът или лекият сняг може да са невидими за радара. Интензивността на валежите е обозначена с цветни кодове, вариращи от светлосиньо до оранжево.